Lafayette, LA

10:03 AM CDT on April 29, 2017 (GMT -0500)
Lafayette Regional

Weather History for KLFT - November, 2012

Change the Weather History Date:

Monday, November 12, 2012

  Actual Average Record
Temperature  
Mean Temperature 58 °F 63 °F  
Max Temperature 71 °F 74 °F 86 °F (1912)
Min Temperature 44 °F 52 °F 28 °F (1950)
Degree Days  
Heating Degree Days 7 5  
Month to date heating degree days 29 44  
Since 1 July heating degree days 76 80  
Growing Degree Days 8 (Base 50)    
Moisture  
Dew Point 51 °F    
Average Humidity 71    
Maximum Humidity 97    
Minimum Humidity 45    
Precipitation  
Precipitation 0.00 in 0.13 in 1.89 in (1997)
Month to date precipitation 1.05 1.82  
Year to date precipitation 59.04 52.39  
Snow  
Snow 0.00 in 0.00 in 0.00 in ()
Month to date snowfall 0.0 0.0  
Since 1 July snowfall 0.0 0.0  
Since 1 September snowfall 0.0 0.0  
Snow Depth 0.00 in    
Sea Level Pressure  
Sea Level Pressure 30.25 in    
Wind  
Wind Speed 13 mph (North)    
Max Wind Speed 28 mph    
Max Gust Speed 33 mph    
Visibility 9 miles    
Events      
T = Trace of Precipitation, MM = Missing Value Source: NWS Daily Summary

Daily Weather History Graph

Daily Weather History Graph

Search for Another Location

Airport or City:

Trip Planner

Search our weather history database for the weather conditions in past years. The results will help you decide how hot, cold, wet, or windy it might be!

Date:

Astronomy

Nov. 12, 2012 Rise Set
Actual Time 6:31 AM CST 5:12 PM CST
Civil Twilight 6:06 AM CST 5:37 PM CST
Nautical Twilight 5:37 AM CST 6:06 PM CST
Astronomical Twilight 5:08 AM CST 6:35 PM CST
Moon 5:00 AM CST (11/12) 4:16 PM CST (11/12)
Length of Visible Light 11h 31m
Length of Day
10h 41m
Waning Crescent, 2% of the Moon is Illuminated
Nov 12
Waning Crescent
Nov 13
New
Nov 20
First Quarter
Nov 28
Full
Dec 6
Last Quarter

Hourly Weather History & Observations

Time (CST) Temp. Windchill Dew Point Humidity Pressure Visibility Wind Dir Wind Speed Gust Speed Precip Events Conditions
12:33 AM 71.6 °F - 68.0 °F 88% 30.09 in 10.0 mi South 4.6 mph - N/A   Overcast
12:53 AM 71.1 °F - 68.0 °F 90% 30.09 in 10.0 mi South 4.6 mph - N/A   Overcast
1:53 AM 70.0 °F - 68.0 °F 93% 30.09 in 8.0 mi South 3.5 mph - N/A   Scattered Clouds
2:48 AM 68.0 °F - 66.2 °F 94% 30.09 in 1.8 mi Calm Calm - N/A   Scattered Clouds
2:53 AM 68.0 °F - 66.9 °F 96% 30.12 in 1.0 mi Variable 3.5 mph - N/A   Scattered Clouds
2:55 AM 68.0 °F - 66.2 °F 94% 30.12 in 1.0 mi NNW 18.4 mph 24.2 mph N/A   Scattered Clouds
3:02 AM 62.6 °F - 60.8 °F 94% 30.14 in 3.0 mi NNW 23.0 mph 33.4 mph N/A   Mostly Cloudy
3:08 AM 62.6 °F - 59.0 °F 88% 30.13 in 10.0 mi North 18.4 mph 28.8 mph N/A   Mostly Cloudy
3:20 AM 60.8 °F - 55.4 °F 82% 30.16 in 10.0 mi NNW 23.0 mph 31.1 mph N/A   Overcast
3:29 AM 59.0 °F - 55.4 °F 88% 30.16 in 10.0 mi North 19.6 mph 31.1 mph N/A   Overcast
3:36 AM 59.0 °F - 55.4 °F 88% 30.17 in 10.0 mi North 18.4 mph 27.6 mph N/A   Overcast
3:53 AM 59.0 °F - 54.0 °F 83% 30.17 in 10.0 mi North 16.1 mph - N/A   Overcast
4:31 AM 57.2 °F - 51.8 °F 82% 30.18 in 10.0 mi North 21.9 mph 28.8 mph N/A   Overcast
4:53 AM 57.9 °F - 51.1 °F 78% 30.20 in 10.0 mi North 15.0 mph - N/A   Overcast
5:53 AM 57.0 °F - 48.9 °F 74% 30.22 in 10.0 mi North 16.1 mph 24.2 mph N/A   Overcast
6:53 AM 55.9 °F - 48.0 °F 75% 30.27 in 10.0 mi NNE 11.5 mph - N/A   Overcast
7:53 AM 55.9 °F - 48.9 °F 77% 30.28 in 10.0 mi NE 6.9 mph - N/A   Overcast
8:53 AM 57.0 °F - 48.9 °F 74% 30.31 in 10.0 mi North 10.4 mph - N/A   Overcast
9:53 AM 60.1 °F - 46.9 °F 62% 30.32 in 10.0 mi NNE 20.7 mph 26.5 mph N/A   Overcast
10:53 AM 59.0 °F - 48.9 °F 69% 30.32 in 10.0 mi North 15.0 mph 23.0 mph N/A   Overcast
11:53 AM 63.0 °F - 48.9 °F 60% 30.32 in 10.0 mi NNE 20.7 mph 27.6 mph N/A   Partly Cloudy
12:53 PM 64.9 °F - 48.0 °F 54% 30.29 in 10.0 mi NNE 13.8 mph - N/A   Clear
1:53 PM 66.0 °F - 44.1 °F 45% 30.28 in 10.0 mi NNE 21.9 mph 27.6 mph N/A   Clear
2:53 PM 64.9 °F - 46.0 °F 50% 30.28 in 10.0 mi North 17.3 mph 25.3 mph N/A   Clear
3:53 PM 62.1 °F - 42.1 °F 48% 30.32 in 10.0 mi North 17.3 mph 24.2 mph N/A   Clear
4:53 PM 57.9 °F - 44.1 °F 60% 30.33 in 10.0 mi North 13.8 mph - N/A   Clear
5:53 PM 55.0 °F - 44.1 °F 67% 30.35 in 10.0 mi North 15.0 mph - N/A   Clear
6:53 PM 53.1 °F - 43.0 °F 69% 30.37 in 10.0 mi North 13.8 mph 20.7 mph N/A   Clear
7:53 PM 52.0 °F - 39.9 °F 63% 30.39 in 10.0 mi NNE 13.8 mph - N/A   Clear
8:53 PM 50.0 °F - 39.0 °F 66% 30.39 in 10.0 mi NNE 10.4 mph - N/A   Clear
9:53 PM 48.9 °F - 39.9 °F 71% 30.38 in 10.0 mi NNE 11.5 mph - N/A   Clear
10:53 PM 46.9 °F - 37.9 °F 71% 30.40 in 10.0 mi NNE 10.4 mph - N/A   Clear
11:53 PM 44.1 °F 40.1 °F 37.0 °F 76% 30.41 in 10.0 mi NNE 6.9 mph - N/A   Clear